Starlink 30510

operational
NORAD ID: 57981 Int'l Des: 2023-151 Owner: SPXS Country: US Constellation: starlink
LEOCIRCULAR

关于 Starlink 30510

正在加载描述...

实时位置

正在加载3D地球...

即将过境

高度历史

Altitude vs Time

uPlot chart will show altitude changes over time

两行轨道根数

1 57981U 23151T 25352.62514813 .00000349 00000-0 40885-4 0 9994
2 57981 43.0035 72.4834 0001454 269.9265 90.1411 15.02540111123381
Epoch: Dec 18, 2025 • Age: 6 hours

当前状态

高度 567.0 km
速度 7.58 km/s
星下点 -31.77°S, 107.37°W
发射日期 Sep 30, 2023
运行时间 2.2 years
类型 internet

技术详情

分类 Payload
质量 730.00 kg
干质量 700.00 kg
总质量 730.00 kg
长度 0.30 m
直径 4.10 m
跨度 29.00 m
形状 Box + pan
制造商 SPXS
平台类型 Starlink V2M
阶段状态 In Orbit
所有者/国家 SPXS/US

大型星座

Loading constellations...